Weather History for Pittsburgh, PA

Change the Weather History Date:

Monday, February 17, 2014

  Actual Average Record
Temperature  
Mean Temperature 17 °F 31 °F  
Max Temperature 33 °F 40 °F 68 °F (1883)
Min Temperature 1 °F 23 °F -10 °F (1979)
Degree Days  
Heating Degree Days 48 34  
Month to date heating degree days 726 595  
Since 1 July heating degree days 4163 3904  
Cooling Degree Days 0 0  
Month to date cooling degree days 0 0  
Year to date cooling degree days 0 0  
Moisture  
Dew Point 12 °F    
Average Humidity 66    
Maximum Humidity 92    
Minimum Humidity 39    
Precipitation  
Precipitation 0.12 in 0.08 in 0.82 in (1982)
Month to date precipitation 1.54 1.45  
Year to date precipitation 3.72 4.15  
Snow  
Snow 1.30 in 0.40 in 5.20 in (2003)
Month to date snowfall 13.2 6.2  
Since 1 July snowfall 55.5 28.5  
Snow Depth 8.00 in    
Sea Level Pressure  
Sea Level Pressure 30.18 in    
Wind  
Wind Speed 9 mph (ESE)    
Max Wind Speed 24 mph    
Max Gust Speed 32 mph    
Visibility 7 miles    
Events Snow    
T = Trace of Precipitation, MM = Missing Value Source: NWS Daily Summary

Daily Weather History Graph

Daily Weather History Graph

Search for Another Location

Airport:

Trip Planner

Search our weather history database for the weather conditions in past years. The results will help you decide how hot, cold, wet, or windy it might be!

Date:

Astronomy

Feb. 17, 2014 Rise Set
Actual Time 7:11 AM EST 5:58 PM EST
Civil Twilight 6:43 AM EST 6:26 PM EST
Nautical Twilight 6:12 AM EST 6:58 PM EST
Astronomical Twilight 5:40 AM EST 7:29 PM EST
Moon 8:52 PM EST (2/17) 8:10 AM EST (2/17)
Length of Visible Light 11h 42m
Length of Day
10h 46m
Waning Gibbous, 93% of the Moon is Illuminated
Feb 17
Waning Gibbous
Feb 22
Last Quarter
Mar 1
New
Mar 8
First Quarter
Mar 16
Full

Hourly Weather History & Observations

Time (EST) Temp. Windchill Dew Point Humidity Pressure Visibility Wind Dir Wind Speed Gust Speed Precip Events Conditions
12:51 AM 14.0 °F 6.5 °F 8.1 °F 77% 30.38 in 9.0 mi North 4.6 mph - 0.00 in Snow Light Snow
1:51 AM 12.0 °F 2.7 °F 7.0 °F 80% 30.38 in 9.0 mi NNW 5.8 mph - 0.00 in Snow Light Snow
2:51 AM 14.0 °F 8.2 °F 10.0 °F 84% 30.38 in 6.0 mi North 3.5 mph - 0.00 in Snow Light Snow
3:51 AM 8.1 °F -0.5 °F 6.1 °F 92% 30.38 in 9.0 mi WNW 4.6 mph - 0.00 in   Scattered Clouds
4:51 AM 6.1 °F - 1.9 °F 83% 30.38 in 7.0 mi Calm Calm - N/A   Clear
5:51 AM 3.9 °F - 1.0 °F 88% 30.41 in 6.0 mi Calm Calm - N/A   Clear
6:51 AM 3.9 °F - -0.0 °F 84% 30.44 in 5.0 mi Calm Calm - N/A   Partly Cloudy
7:51 AM 6.1 °F - 3.0 °F 87% 30.44 in 7.0 mi Calm Calm - N/A   Scattered Clouds
8:51 AM 10.9 °F - 9.0 °F 92% 30.46 in 6.0 mi Calm Calm - N/A   Mostly Cloudy
9:51 AM 14.0 °F 2.0 °F 9.0 °F 80% 30.43 in 9.0 mi ESE 9.2 mph - N/A   Mostly Cloudy
10:51 AM 18.0 °F 5.4 °F 9.0 °F 68% 30.42 in 10.0 mi ESE 11.5 mph - N/A   Scattered Clouds
11:51 AM 21.0 °F 10.6 °F 9.0 °F 60% 30.39 in 10.0 mi East 9.2 mph - N/A   Mostly Cloudy
12:51 PM 24.1 °F 13.7 °F 9.0 °F 53% 30.34 in 10.0 mi East 10.4 mph - N/A   Scattered Clouds
1:51 PM 26.1 °F 15.0 °F 9.0 °F 49% 30.27 in 10.0 mi ESE 12.7 mph - N/A   Overcast
2:51 PM 28.9 °F 18.2 °F 10.0 °F 45% 30.20 in 10.0 mi ESE 13.8 mph - N/A   Overcast
3:51 PM 30.0 °F 22.4 °F 10.0 °F 43% 30.18 in 10.0 mi ESE 8.1 mph - N/A   Mostly Cloudy
4:51 PM 32.0 °F 22.1 °F 10.0 °F 40% 30.11 in 10.0 mi East 13.8 mph - N/A   Overcast
5:51 PM 32.0 °F 21.6 °F 10.0 °F 40% 30.06 in 10.0 mi ESE 15.0 mph - N/A   Overcast
6:51 PM 32.0 °F 20.1 °F 10.0 °F 40% 30.00 in 10.0 mi ESE 19.6 mph 25.3 mph N/A   Overcast
7:51 PM 30.9 °F 20.2 °F 10.9 °F 43% 29.97 in 10.0 mi SE 15.0 mph 23.0 mph N/A   Overcast
8:51 PM 32.0 °F 22.1 °F 12.0 °F 44% 29.94 in 10.0 mi SE 13.8 mph 21.9 mph N/A   Overcast
9:09 PM 32.0 °F 20.8 °F 12.2 °F 44% 29.86 in 1.5 mi SE 17.3 mph 24.2 mph 0.00 in Snow Light Snow
9:17 PM 30.2 °F 18.1 °F 19.4 °F 64% 29.85 in 0.5 mi SE 18.4 mph 27.6 mph 0.00 in Snow Snow
9:41 PM 28.4 °F 17.0 °F 24.8 °F 86% 29.83 in 1.0 mi SE 15.0 mph - 0.01 in Snow Light Snow
9:51 PM 28.0 °F 15.7 °F 25.0 °F 88% 29.89 in 1.0 mi ESE 17.3 mph 24.2 mph 0.01 in Snow Light Snow
10:09 PM 28.4 °F 15.8 °F 24.8 °F 86% 29.80 in 7.0 mi SE 18.4 mph 28.8 mph 0.02 in Snow Light Snow
10:51 PM 28.9 °F 17.7 °F 25.0 °F 85% 29.84 in 7.0 mi SE 15.0 mph 27.6 mph 0.02 in Snow Light Snow
11:31 PM 28.4 °F 17.5 °F 26.6 °F 93% 29.78 in 2.0 mi SSE 13.8 mph - 0.00 in Snow Light Snow
11:51 PM 30.0 °F 21.1 °F 27.0 °F 88% 29.85 in 1.5 mi SSE 10.4 mph - 0.01 in Snow Light Snow